[[{"header":{"parameterUnit":"m.s-1","parameterCategory":1,"la1":30.2991,"la2":30.254,"lo1":-89.0895,"lo2":-89.0444,"dy":0.0017,"dx":0.0017,"nx":28,"ny":28,"refTime":"2024-11-30T09:00:00:Z","depth":0,"parameterNumber":2,"parameterNumberName":"U-component_of_WINDS"},"data":[0,0,0,0,0,0,0,0,0,0,0,0,0,0,0,0,0,0,0,0,0,0,0,0,0,0,0,0,0,0,0,0,0,0,0,0,0,0,0,0,0,0,0,0,0,0,0,0,0,0,0,0,0,0,0,0,0,0,-3.4968,-3.4967,0,-3.4964,-3.4964,-3.4964,-3.486,-3.4857,-3.4855,-3.4852,-3.4852,-3.4854,-3.4856,0,0,0,0,0,0,0,0,0,0,0,0,0,-3.4888,-3.489,-3.4968,-3.4967,-3.4967,-3.4964,-3.4964,-3.4964,-3.4861,-3.4857,-3.4854,-3.4851,-3.4851,-3.4854,-3.4857,0,0,0,0,0,0,0,0,0,0,0,0,0,-3.4907,-3.489,-3.4968,-3.4915,-3.4911,-3.4964,-3.4964,-3.4964,-3.4861,-3.4857,-3.4853,-3.4849,-3.485,-3.4853,-3.4857,-3.4961,0,0,-3.4868,-3.487,0,0,0,0,0,0,0,0,-3.4906,-3.491,-3.4923,-3.4919,-3.4914,-3.4908,-3.4935,-3.4963,-3.4862,-3.488,-3.4852,-3.4847,-3.4874,-3.4875,-3.4884,-3.4961,-3.4961,-3.4869,-3.4871,-3.4873,-3.4874,0,0,0,0,0,0,0,-3.4905,-3.491,-3.4966,-3.4923,-3.4918,-3.4893,-3.4891,-3.494,-3.49,-3.4878,-3.4871,-3.4872,-3.4871,-3.488,-3.4883,-3.4961,-3.4869,-3.4872,-3.4874,-3.4876,-3.5125,-3.5129,0,0,0,0,0,0,-3.491,-3.4909,-3.4966,-3.4966,-3.49,-3.4898,-3.4896,-3.4914,-3.4899,-3.4893,-3.4875,-3.4867,-3.4876,-3.4879,-3.4882,-3.5005,-3.4873,-3.4876,-3.4878,-3.5121,-3.5126,-3.5131,0,0,0,0,0,0,-3.4909,-3.4916,-3.4966,-3.4936,-3.494,-3.4903,-3.4925,-3.4916,-3.4926,-3.4896,-3.4889,-3.4892,-3.4873,-3.4877,-3.4942,-3.5003,-3.4878,-3.4881,-3.5116,-3.5122,-3.5128,-3.5249,0,0,0,0,0,0,-3.4907,-3.4917,-3.4955,-3.4937,-3.4942,-3.5026,-3.4929,-3.4919,-3.4932,-3.4921,-3.4911,-3.4905,-3.487,-3.4937,-3.4946,-3.5006,-3.4884,-3.511,-3.5119,-3.5126,-3.524,-3.5259,-3.5276,0,0,0,0,0,-3.4905,-3.4989,-3.4957,-3.4965,-3.4989,-3.503,-3.5032,-3.499,-3.4938,-3.4977,-3.4958,-3.4905,-3.4995,-3.4945,-3.4954,-3.5016,-3.5106,-3.5116,-3.5126,-3.5232,-3.5256,-3.5276,0,0,0,0,0,0,-3.5016,-3.4986,-3.495,-3.5032,-3.5034,-3.5012,-3.506,-3.5016,-3.5034,-3.5023,-3.497,-3.4968,-3.5042,-3.5035,-3.498,-3.5117,-3.5041,-3.5053,-3.5119,-3.5141,-3.5159,-3.516,-3.4887,0,0,0,0,0,-3.505,-3.5084,-3.5056,-3.5131,-3.5134,-3.5097,-3.5113,-3.508,-3.508,-3.5081,-3.5067,-3.507,-3.5099,-3.5119,-3.5144,-3.5238,-3.5235,-3.5285,-3.5303,-3.5318,-3.533,-3.5381,-3.5403,-3.5163,-3.5163,-3.5163,0,0,-3.512,-3.5108,-3.5133,-3.5153,-3.5151,-3.5189,-3.5098,-3.5142,-3.517,-3.5088,-3.5149,-3.5139,-3.5139,-3.522,-3.5254,-3.5216,-3.5395,-3.533,-3.5343,-3.5346,-3.5393,-3.5416,-3.5436,-3.517,-3.5169,-3.5168,0,0,-3.5269,-3.5262,-3.5324,-3.5324,-3.5322,-3.5297,-3.5312,-3.5297,-3.5287,-3.5347,-3.5286,-3.5319,-3.537,-3.5373,-3.5381,-3.5532,-3.5485,-3.5541,-3.5637,-3.5687,-3.5706,-3.5723,-3.5779,-3.5799,-3.5553,-3.5553,-3.5553,0,-3.5357,-3.5411,-3.5362,-3.541,-3.5422,-3.5348,-3.5411,-3.5413,-3.542,-3.543,-3.5386,-3.5449,-3.5444,-3.5525,-3.5562,-3.557,-3.5588,-3.5543,-3.5707,-3.5723,-3.5738,-3.5791,-3.5812,-3.556,-3.5559,-3.5559,-3.5558,0,-3.5521,-3.556,-3.561,-3.5618,-3.5635,-3.5691,-3.5651,-3.5674,-3.5639,-3.562,-3.5683,-3.5674,-3.5697,-3.5713,-3.568,-3.579,-3.5767,-3.5716,-3.564,-3.5769,-3.5818,-3.5837,-3.557,-3.5568,-3.5566,-3.5564,0,0,-3.5741,-3.5721,-3.5741,-3.5744,-3.5736,-3.5765,-3.5818,-3.584,-3.5861,-3.5868,-3.5913,-3.5957,-3.5911,-3.592,-3.5886,-3.5931,-3.6053,-3.5874,-3.5874,-3.591,-3.6177,-3.6218,-3.6242,-3.6021,-3.6025,-3.6028,-3.6178,0,-3.5886,-3.5975,-3.5933,-3.6027,-3.6063,-3.5993,-3.604,-3.6041,-3.6024,-3.6053,-3.6033,-3.6067,-3.6001,-3.6007,-3.6047,-3.603,-3.6107,-3.6018,-3.6065,-3.6067,-3.6069,-3.6267,-3.6309,-3.6451,-3.6197,-3.62,-3.6202,0,-3.6068,-3.6082,-3.6181,-3.6167,-3.6181,-3.6223,-3.624,-3.6268,-3.6268,-3.6253,-3.6264,-3.6221,-3.6273,-3.6196,-3.6268,-3.6209,-3.6225,-3.622,-3.6224,-3.6229,-3.6144,-3.6279,-3.6495,-3.6518,-3.6231,-3.6229,-3.6227,0,-3.6221,-3.6265,-3.633,-3.6334,-3.632,-3.6352,-3.6348,-3.6343,-3.636,-3.6375,-3.6385,-3.6406,-3.6418,-3.6436,-3.6401,-3.6347,-3.6479,-3.6398,-3.647,-3.6471,-3.6503,-3.6502,-3.6727,-3.651,-3.6509,-3.6509,-3.6508,0,-3.639,-3.6453,-3.6399,-3.6439,-3.6508,-3.6459,-3.6529,-3.6517,-3.6515,-3.6552,-3.6493,-3.653,-3.6479,-3.6511,-3.6483,-3.6549,-3.6554,-3.6545,-3.6537,-3.6552,-3.6553,-3.6563,-3.6554,-3.6514,-3.6513,-3.6512,-3.6511,0,-3.6574,-3.6539,-3.6606,-3.6587,-3.6583,-3.6636,-3.662,-3.6657,-3.6635,-3.6684,-3.6692,-3.6659,-3.6694,-3.666,-3.6693,-3.6674,-3.6763,-3.674,-3.6763,-3.6758,-3.6832,-3.6826,-3.7074,-3.7105,-3.6865,-3.6867,-3.6869,0,-3.6684,-3.6731,-3.6717,-3.6738,-3.6737,-3.6771,-3.6787,-3.674,-3.676,-3.6764,-3.6802,-3.6831,-3.6853,-3.6913,-3.6892,-3.6918,-3.6896,-3.6981,-3.69,-3.6914,-3.6901,-3.6899,-3.6905,-3.6999,-3.7001,-3.7004,-3.7005,0,-3.6885,-3.6866,-3.6891,-3.6911,-3.6932,-3.6945,-3.6954,-3.6975,-3.6927,-3.6952,-3.6987,-3.7004,-3.7037,-3.7069,-3.7088,-3.7084,-3.7039,-3.7031,-3.7049,-3.7066,-3.7079,-3.7075,-3.6811,-3.7026,-3.7024,-3.7022,-3.7021,-3.7021,-3.7037,-3.7077,-3.7074,-3.7104,-3.7105,-3.7116,-3.715,-3.7133,-3.7161,-3.7184,-3.7155,-3.7199,-3.7199,-3.722,-3.7222,-3.7256,-3.7221,-3.7247,-3.7254,-3.7262,-3.7274,-3.7071,-3.7259,-3.7259,-3.7258,-3.7258,-3.7257,0,-3.7238,-3.7232,-3.726,-3.7275,-3.7299,-3.7251,-3.7259,-3.7283,-3.7322,-3.7326,-3.7348,-3.7389,-3.7419,-3.7402,-3.7428,-3.7459,-3.7439,-3.7468,-3.7466,-3.7467,-3.7303,-3.7286,-3.7484,-3.7484,-3.7484,-3.7484,-3.7484,-3.7484,-3.7345,-3.7409,-3.739,-3.7456,-3.7449,-3.7491,-3.75,-3.751,-3.7512,-3.7561,-3.7585,-3.7573,-3.7569,-3.7594,-3.7621,-3.7615,-3.7628,-3.7666,-3.7653,-3.75,-3.7478,-3.7457,-3.7441,-3.7668,-3.7669,-3.7814,-3.7815,-3.7816]},{"header":{"parameterUnit":"m.s-1","parameterCategory":1,"la1":30.2991,"la2":30.254,"lo1":-89.0895,"lo2":-89.0444,"dy":0.0017,"dx":0.0017,"nx":28,"ny":28,"refTime":"2024-11-30T09:00:00:Z","depth":0,"parameterNumber":3,"parameterNumberName":"V-component_of_WINDS"},"data":[0,0,0,0,0,0,0,0,0,0,0,0,0,0,0,0,0,0,0,0,0,0,0,0,0,0,0,0,0,0,0,0,0,0,0,0,0,0,0,0,0,0,0,0,0,0,0,0,0,0,0,0,0,0,0,0,0,0,-2.1159,-2.116,0,-2.1202,-2.1202,-2.1203,-2.1186,-2.1185,-2.1184,-2.1183,-2.1225,-2.1227,-2.1229,0,0,0,0,0,0,0,0,0,0,0,0,0,-2.1062,-2.1064,-2.1159,-2.116,-2.116,-2.1201,-2.1202,-2.1203,-2.1186,-2.1185,-2.1184,-2.1183,-2.1225,-2.1227,-2.123,0,0,0,0,0,0,0,0,0,0,0,0,0,-2.1104,-2.1065,-2.1159,-2.1157,-2.1157,-2.1201,-2.1202,-2.1203,-2.1186,-2.1185,-2.1183,-2.1182,-2.1224,-2.1227,-2.123,-2.1279,0,0,-2.1239,-2.1241,0,0,0,0,0,0,0,0,-2.1102,-2.1108,-2.1157,-2.1157,-2.1158,-2.1187,-2.1183,-2.1228,-2.1187,-2.1175,-2.1183,-2.1181,-2.1214,-2.1218,-2.1229,-2.128,-2.1282,-2.124,-2.1242,-2.1243,-2.1244,0,0,0,0,0,0,0,-2.1099,-2.1106,-2.1176,-2.1157,-2.1158,-2.1153,-2.1158,-2.1192,-2.1202,-2.1176,-2.1175,-2.118,-2.1214,-2.1226,-2.123,-2.1283,-2.124,-2.1242,-2.1244,-2.1245,-2.1376,-2.1378,0,0,0,0,0,0,-2.1096,-2.1104,-2.1175,-2.1177,-2.1126,-2.1156,-2.1161,-2.1179,-2.1202,-2.1204,-2.1182,-2.1179,-2.1221,-2.1226,-2.1231,-2.1289,-2.1243,-2.1246,-2.1247,-2.1374,-2.1376,-2.1378,0,0,0,0,0,0,-2.1094,-2.1103,-2.1173,-2.114,-2.1149,-2.1159,-2.118,-2.1181,-2.1193,-2.1206,-2.1208,-2.1192,-2.122,-2.1227,-2.1267,-2.1291,-2.1247,-2.125,-2.1372,-2.1375,-2.1377,-2.1406,0,0,0,0,0,0,-2.1091,-2.1102,-2.1121,-2.1141,-2.1151,-2.1208,-2.1181,-2.1182,-2.1198,-2.1196,-2.1216,-2.1218,-2.122,-2.1262,-2.127,-2.1294,-2.1252,-2.137,-2.1374,-2.1376,-2.1403,-2.1409,-2.1415,0,0,0,0,0,-2.1088,-2.1127,-2.1122,-2.1131,-2.1175,-2.121,-2.1215,-2.1217,-2.12,-2.1219,-2.1227,-2.1218,-2.1287,-2.1267,-2.1275,-2.13,-2.1369,-2.1373,-2.1376,-2.1401,-2.1408,-2.1415,0,0,0,0,0,0,-2.111,-2.113,-2.1124,-2.1171,-2.1189,-2.1207,-2.1231,-2.1224,-2.1247,-2.1244,-2.1244,-2.1248,-2.129,-2.1299,-2.1276,-2.1348,-2.1325,-2.1331,-2.1341,-2.1348,-2.1354,-2.1351,-2.1255,0,0,0,0,0,-2.112,-2.1148,-2.1164,-2.1203,-2.1213,-2.122,-2.1236,-2.1235,-2.1253,-2.1261,-2.1272,-2.129,-2.1315,-2.1332,-2.1356,-2.1404,-2.1408,-2.1426,-2.1431,-2.1436,-2.1441,-2.1467,-2.1475,-2.139,-2.139,-2.139,0,0,-2.1142,-2.1156,-2.1174,-2.1208,-2.1222,-2.125,-2.1227,-2.1257,-2.1278,-2.1265,-2.1304,-2.1312,-2.1332,-2.1376,-2.1396,-2.1385,-2.1465,-2.1441,-2.1444,-2.1447,-2.1471,-2.1479,-2.1486,-2.1393,-2.1392,-2.1392,0,0,-2.1196,-2.121,-2.1244,-2.1258,-2.1279,-2.1284,-2.1292,-2.1311,-2.1317,-2.1355,-2.1346,-2.137,-2.1414,-2.1429,-2.1442,-2.15,-2.1492,-2.1508,-2.1538,-2.1563,-2.157,-2.1576,-2.1597,-2.1604,-2.1513,-2.1513,-2.1513,0,-2.122,-2.1263,-2.1263,-2.1294,-2.131,-2.1299,-2.1334,-2.1347,-2.1375,-2.1386,-2.1373,-2.1428,-2.144,-2.1487,-2.1502,-2.1512,-2.1522,-2.1506,-2.1569,-2.1575,-2.158,-2.16,-2.1608,-2.1515,-2.1514,-2.1514,-2.1514,0,-2.1291,-2.1321,-2.1346,-2.1374,-2.1391,-2.1424,-2.1429,-2.1447,-2.1444,-2.145,-2.149,-2.1504,-2.1531,-2.1542,-2.154,-2.1589,-2.1581,-2.1569,-2.1546,-2.159,-2.1609,-2.1617,-2.1517,-2.1517,-2.1516,-2.1516,0,0,-2.1361,-2.1388,-2.1397,-2.1409,-2.1431,-2.1454,-2.1486,-2.1512,-2.1528,-2.1547,-2.1574,-2.1611,-2.1599,-2.1614,-2.1613,-2.1635,-2.168,-2.162,-2.162,-2.1631,-2.1735,-2.1745,-2.1754,-2.1675,-2.1676,-2.1677,-2.1734,0,-2.1417,-2.1474,-2.1475,-2.1527,-2.1554,-2.1544,-2.1572,-2.1588,-2.1594,-2.1617,-2.1623,-2.165,-2.1633,-2.1641,-2.1663,-2.167,-2.1701,-2.1666,-2.1699,-2.1701,-2.1696,-2.1764,-2.1774,-2.1827,-2.1741,-2.1742,-2.1743,0,-2.149,-2.1512,-2.1567,-2.1585,-2.1596,-2.1621,-2.1645,-2.1668,-2.1686,-2.1688,-2.1705,-2.17,-2.1732,-2.1708,-2.1752,-2.1728,-2.1741,-2.1747,-2.1749,-2.1752,-2.1725,-2.177,-2.1844,-2.1852,-2.1755,-2.1754,-2.1753,0,-2.1536,-2.1579,-2.1617,-2.1628,-2.165,-2.1667,-2.1677,-2.1693,-2.1709,-2.173,-2.174,-2.1764,-2.1777,-2.1796,-2.1798,-2.178,-2.1842,-2.1818,-2.1845,-2.1845,-2.1859,-2.1859,-2.1937,-2.1867,-2.1867,-2.1867,-2.1867,0,-2.1598,-2.1633,-2.1638,-2.1662,-2.1699,-2.1699,-2.1737,-2.1745,-2.1759,-2.1784,-2.1776,-2.1799,-2.18,-2.1824,-2.1825,-2.1861,-2.1867,-2.187,-2.187,-2.1871,-2.1871,-2.1881,-2.1877,-2.1869,-2.1869,-2.1868,-2.1868,0,-2.1656,-2.1661,-2.1703,-2.172,-2.1725,-2.1752,-2.1766,-2.1788,-2.1793,-2.1824,-2.1832,-2.1839,-2.1867,-2.187,-2.1902,-2.1903,-2.1946,-2.1942,-2.1941,-2.194,-2.1968,-2.1965,-2.2056,-2.2067,-2.1989,-2.199,-2.1991,0,-2.1696,-2.1722,-2.1742,-2.1758,-2.1769,-2.1795,-2.1811,-2.1812,-2.1829,-2.185,-2.187,-2.1896,-2.1918,-2.1962,-2.197,-2.1994,-2.1991,-2.2021,-2.1994,-2.1994,-2.1992,-2.199,-2.1993,-2.2026,-2.2027,-2.2028,-2.2028,0,-2.1766,-2.1768,-2.1791,-2.1816,-2.1835,-2.1855,-2.1873,-2.1886,-2.1889,-2.1908,-2.1936,-2.1953,-2.1985,-2.2011,-2.2035,-2.2044,-2.2037,-2.2036,-2.2044,-2.2046,-2.2044,-2.2045,-2.1955,-2.2034,-2.2034,-2.2033,-2.2033,-2.2033,-2.1817,-2.1839,-2.1857,-2.1883,-2.1897,-2.1914,-2.1936,-2.1943,-2.1967,-2.1994,-2.1992,-2.2023,-2.2039,-2.207,-2.2081,-2.2105,-2.2095,-2.2106,-2.2109,-2.2112,-2.2115,-2.2039,-2.2109,-2.2109,-2.2109,-2.2109,-2.2109,0,-2.1887,-2.1897,-2.1922,-2.1948,-2.1968,-2.1959,-2.1979,-2.1996,-2.2024,-2.204,-2.2061,-2.2093,-2.2118,-2.2128,-2.2153,-2.217,-2.2167,-2.2176,-2.2175,-2.2177,-2.2122,-2.2113,-2.2178,-2.2178,-2.2178,-2.2178,-2.2178,-2.2178,-2.1926,-2.1964,-2.1967,-2.2011,-2.2021,-2.2051,-2.2063,-2.2079,-2.2091,-2.2128,-2.2149,-2.2155,-2.2168,-2.2194,-2.2217,-2.2219,-2.2228,-2.2239,-2.224,-2.2188,-2.2181,-2.2175,-2.2166,-2.2241,-2.2241,-2.2293,-2.2294,-2.2294]}]]